• Processing (Info)

  • MPEC 2023-O67 : 2014 UV115

    The following Minor Planet Electronic Circular may be linked-to from your own Web pages, but must not otherwise be redistributed electronically.

    A form allowing access to any MPEC is at the bottom of this page.


    Read MPEC 2023-O66 Read MPEC 2023-O68


    M.P.E.C. 2023-O67                                 Issued 2023 July 24, 14:06 UT
    
         The Minor Planet Electronic Circulars contain information on unusual
             minor planets, routine data on comets and natural satellites,
             and occasional editorial announcements.  They are published
        on behalf of Division F of the International Astronomical Union by the
              Minor Planet Center, Smithsonian Astrophysical Observatory,
                              Cambridge, MA 02138, U.S.A.
    			  
                 Prepared using the Tamkin Foundation Computer Network
    
                                  MPC@CFA.HARVARD.EDU
                URL https://www.minorplanetcenter.net/    ISSN 1523-6714
    
                                   2014 UV115                                
    
    
                               Revision to MPEC 2014-U114                           
    
    Additional Observations:
         K14UB5V  C2020 10 14.45577704 46 22.116+13 16 24.23         22.58GVEO067F52
         K14UB5V  C2020 10 14.48127604 46 26.810+13 15 55.68         21.86GVEO067F52
         K14UB5V  C2020 10 14.49403204 46 29.140+13 15 41.53         22.06GVEO067F52
         K14UB5V  C2020 10 26.57499605 52 09.167+05 21 19.57         20.45GVEO067F52
         K14UB5V  C2020 10 26.58744305 52 15.962+05 20 22.57         20.12GVEO067F52
         K14UB5V  C2020 10 26.59985405 52 22.792+05 19 25.34         20.05GVEO067F52
         K14UB5V  C2023 07 16.29583814 54 44.041+24 58 07.65         19.73GVEO067F52
         K14UB5V  C2023 07 16.30859114 55 05.279+24 54 05.98         19.77GVEO067F52
         K14UB5V  C2023 07 22.27254616 36 08.548+02 15 11.69         20.17wXEO067F51
         K14UB5V  C2023 07 22.28449216 36 15.130+02 13 28.68         20.06wXEO067F51
         K14UB5V  C2023 07 22.29644916 36 21.664+02 11 46.45         20.46wXEO067F51
         K14UB5V  C2023 07 22.38733516 37 11.041+01 58 56.13         20.06GVEO067F51
         K14UB5V  C2023 07 22.38797816 37 11.393+01 58 50.46         20.02GVEO067F51
         K14UB5V  C2023 07 22.38926216 37 12.099+01 58 39.72         19.97GVEO067F51
    
    Observer details:
    F51 Pan-STARRS 1, Haleakala.  Observers J. Bulger, T. Lowe, P. Minguez, A.
        Schultz, I. Smith, K. Chambers.  Measurers K. Chambers, T. de Boer, J.
        Bulger, J. Fairlamb, H. Gao, M. Huber, C.-C. Lin, T. Lowe, E. Magnier, P.
        Minguez, Y. Ramanjooloo, A. Schultz, I. Smith, R. Wainscoat, R. Weryk, S.
        Chastel.  1.8-m Ritchey-Chretien + CCD.
    F52 Pan-STARRS 2, Haleakala.  Observers J. Bulger, K. Chambers, T. Dukes, T.
        Lowe, P. Minguez, A. Schultz, I. Smith.  Measurers S. Chastel, J.
        Fairlamb, M. Huber, Y. Ramanjooloo, R. Wainscoat, R. Weryk.  1.8-m
        Ritchey-Chretien + CCD.
    
    First and last observations above in comparison with prediction:
    Residuals in seconds of arc (or zero decimals in degrees), reference and Delta-T
    201014 F52    9-    0-    230722 F51   30-    2-    MPO313405   -4.44 days
    
    Orbital elements:
    2014 UV115                                               Earth MOID = 0.0480 AU
    Epoch 2023 Sept. 13.0 TT = JDT 2460200.5                Veres                   
    M  94.25995              (2000.0)            P               Q                  
    n   0.82234333     Peri.  356.74555     -0.97302991     -0.23045353             
    a   1.1283243      Node   169.91321     +0.21293672     -0.91431211             
    e   0.6355252      Incl.    3.33741     +0.08871719     -0.33305334             
    P   1.20           H   22.72          G   0.15           U   0                  
    Residuals in seconds of arc
    141026 F51  0.1-  0.4+    141028 J95  0.4-  0.7+    141031 F51  0.1+  0.3+
    141026 F51  0.1-  0.0     141028 448  0.3-  0.2-    141031 F51  0.2-  0.3+
    141026 F51  0.2-  0.2+    141028 448  0.4-  0.3-    141031 F51  0.0   0.1-
    141026 F51  0.1-  0.3+    141028 448  0.0   0.2+    141031 F51  0.3+  0.0
    141026 K92  0.1+  0.2-    141028 K51  0.3+  0.3-    141102 H21  0.2-  0.1+
    141026 K92  0.1-  0.1+    141028 K51  0.1-  0.0     141102 H21  0.0   0.0
    141026 K92  0.1-  0.1+    141028 K51  0.3-  0.5+    141102 H21  0.2+  0.1+
    141026 K92  0.0   0.0     141028 K51  0.0   0.2-    201014 F52  0.2+  0.0
    141026 K92  0.1-  0.1+    141029 H21  0.1-  0.1+    201014 F52  0.0   0.1-
    141027 H21  0.2+  0.1+    141029 H21  0.1+  0.1+    201014 F52  0.3-  0.0
    141027 H21  0.4-  0.0     141029 H21  0.9+  0.0     201026 F52  0.2+  0.1-
    141027 H21  0.3-  0.2-    141029 291  0.2-  0.1+    201026 F52  0.1-  0.0
    141027 H21  0.0   0.0     141029 291  0.2-  0.0     201026 F52  0.1+  0.1-
    141027 H21  0.4-  0.3+    141029 291  0.2+  0.0     230716 F52  0.1-  0.1+
    141027 H21  0.3-  0.4-    141030 H21  0.2+  0.0     230716 F52  0.0   0.0
    141027 568  0.0   0.0     141030 H21  0.0   0.1+    230722 F51  0.4-  0.4+
    141027 568  0.1-  0.1+    141030 H21  0.1+  0.1+    230722 F51  0.2+  0.4-
    141027 568  0.1-  0.1+    141030 H21  0.1+  0.1+    230722 F51  0.3+  0.5-
    141028 104  1.0+  0.6+    141030 H21  0.2+  0.1+    230722 F51  0.1-  0.2+
    141028 104  0.1+  1.5-    141030 291  0.0   0.1+    230722 F51  0.1-  0.1-
    141028 104  1.0-  1.0-    141030 291  0.1-  0.1-    230722 F51  0.1+  0.0
    141028 J95  0.6+  0.2-    141030 291  0.0   0.0
    
    Ephemeris:
    2014 UV115               a,e,i = 1.13, 0.64, 3                   q = 0.4112
    Date    TT    R. A. (2000) Decl.     Delta      r    Elong.  Phase     V
    2023 06 24    07 16 39.4 +31 26 44   0.2762  0.7567    17.1   156.7    29.3
    ...
    2023 07 09    10 03 27.3 +44 43 01   0.09905 0.9450    41.7   134.3    23.7
    ...
    2023 07 17    15 13 29.6 +21 21 44   0.08520 1.0369   101.6    73.8    20.0
    ...
    2023 07 23    16 42 43.4 +00 37 17   0.1370  1.1019   125.8    48.4    20.4
    2023 07 24    16 50 43.6 -01 21 41   0.1477  1.1123   127.7    46.3    20.6
    2023 07 25    16 57 43.0 -03 04 44   0.1588  1.1227   129.1    44.6    20.7
    ...
    2023 07 31    17 26 27.6 -09 49 06   0.2296  1.1831   132.8    39.0    21.4
    ...
    2023 08 08    17 48 25.8 -14 14 01   0.3311  1.2585   131.6    37.1    22.3
    ...
    2023 08 23    18 15 08.9 -17 56 11   0.5360  1.3851   124.1    37.2    23.6
    
    A. U. Tomatic                (C) Copyright 2023 MPC           M.P.E.C. 2023-O67
    


    Read MPEC 2023-O66 Read MPEC 2023-O68


    MPEC number:

    Enter an MPEC number in one of the following forms:

    • 1997-B01 (the full form)
    • J97B01 (the packed version of the full form)
    • B01 (the abbreviated form)